Regional Weather Roundup
Issued by NWS

Home | Current Version | Previous Version | Graphics & Text | Print | Product List | Glossary On
Versions: 1 2 3 4 5 6 7 8 9 10 11 12 13 14 15 16 17 18 19 20 21 22 23 24 25 26 27 28 29 30 31 32 33 34 35 36 37 38 39 40 41 42 43 44 45 46 47 48 49 50
000
ASUS43 KBIS 190059
RWRND

NORTH DAKOTA REGIONAL WEATHER ROUNDUP
NATIONAL WEATHER SERVICE BISMARCK ND
800 PM CDT THU SEP 18 2014

NOTE: "FAIR" INDICATES FEW OR NO CLOUDS BELOW 12,000 FEET WITH NO
SIGNIFICANT WEATHER AND/OR OBSTRUCTIONS TO VISIBILITY.


NDZ001>003-009>011-017-190200-
NORTHWEST NORTH DAKOTA

CITY           SKY/WX    TMP DP  RH WIND       PRES   REMARKS
WILLISTON      CLOUDY    72  52  49 CALM      29.59S
MINOT          CLOUDY    76  61  59 S16G26    29.57F
MINOT AFB      CLOUDY    75  64  68 SW16      29.56F
$$

NDZ018>021-031>035-040>046-190200-
SOUTHWEST NORTH DAKOTA

CITY           SKY/WX    TMP DP  RH WIND       PRES   REMARKS
BISMARCK       CLOUDY    74  63  68 S5        29.70R
DICKINSON      CLOUDY    68  61  78 S8        29.67F
GARRISON         N/A     73  64  73 S13       29.63F
HETTINGER ARPT CLOUDY    73  61  65 SE8       29.71F
$$

NDZ004>008-012>016-024-026-027-054-190200-
NORTHEAST NORTH DAKOTA

CITY           SKY/WX    TMP DP  RH WIND       PRES   REMARKS
GRAND FORKS    MOCLDY    70  60  70 SE13      29.71F
DEVILS LAKE    CLOUDY    70  57  64 S17       29.65F
$$

NDZ022-023-025-028>030-036>039-047>053-190200-
SOUTHEAST NORTH DAKOTA

CITY           SKY/WX    TMP DP  RH WIND       PRES   REMARKS
FARGO          PTCLDY    73  57  57 S15       29.76F
$$



USA.gov is the U.S. government's official web portal to all federal, state and local government web resources and services.